EW7682 Weather Reports


time (UTC)temp
C
wind
direction
speed
KPH
gust
KPH
rain 1hr
cm
rain 24hr
cm
rain mn
cm
humidity
%
barometer
mb
20260502130110 11 0.0 0.0 0.00 0.03 0.03 85 1014.6
20260502123058 10 0.0 0.0 0.00 0.03 0.03 88 1014.4
20260502121547 10 0.0 0.0 0.00 0.03 0.03 89 1014.2
20260502114541 10 0.0 0.0 0.00 0.03 0.03 92 1014.5
20260502113041 10 0.0 0.0 0.03 0.03 0.03 92 1014.3
20260502111546 10 0.0 0.0 0.03 0.03 0.03 92 1014.0
20260502110033 10 0.0 0.0 0.03 0.03 0.03 91 1013.5
20260502104530 10 0.0 0.0 0.03 0.03 0.03 90 1013.7
20260502103028 10 0.0 0.0 0.00 0.00 0.00 88 1014.1
20260502101525 10 0.0 0.0 0.00 0.00 0.00 87 1013.8
20260502091517 10 0.0 0.0 0.00 0.00 0.00 84 1013.7
20260502070056 10 0.0 0.0 0.00 0.00 0.00 82 1013.9
20260502064555 10 0.0 0.0 0.00 0.00 0.00 82 1014.1
20260502063114 10 0.0 0.0 0.00 0.00 0.00 81 1014.0
20260502061551 10 0.0 0.0 0.00 0.00 0.00 79 1014.1
20260502060046 10 0.0 0.0 0.00 0.00 0.00 78 1014.5
20260502054546 10 0.0 0.0 0.00 0.00 0.00 77 1014.4
20260502053052 10 0.0 0.0 0.00 0.00 0.00 76 1014.1
20260502051536 10 0.0 0.0 0.00 0.00 0.00 75 1014.1
20260502050034 10 0.0 0.0 0.00 0.00 0.00 74 1014.1
20260502044521 11 0.0 0.0 0.00 0.00 0.00 73 1014.2
20260502043018 11 0.0 0.0 0.00 0.00 0.00 72 1014.3
20260502041516 11 0.0 0.0 0.00 0.00 0.00 73 1014.5
20260502040006 10 0.0 4.8 0.00 0.00 0.00 76 1014.5
20260502034503 10 0.0 0.0 0.00 0.00 0.00 79 1014.4
20260502033002 10 0.0 0.0 0.00 0.00 0.00 81 1014.4
20260502031558 10 0.0 0.0 0.00 0.00 0.00 83 1014.6
20260502030056 10 0.0 0.0 0.00 0.00 0.00 83 1014.8
20260502024606 10 0.0 0.0 0.00 0.00 0.00 83 1014.9
20260502023053 10 0.0 0.0 0.00 0.00 0.00 82 1015.0
20260502021551 10 0.0 0.0 0.00 0.00 0.00 82 1014.8
20260502020049 10 0.0 0.0 0.00 0.00 0.00 81 1014.8
20260502014549 10 0.0 0.0 0.00 0.00 0.00 80 1014.8
20260502013044 10 0.0 9.7 0.00 0.00 0.00 78 1014.7
20260502011541 10 0.0 1.6 0.00 0.00 0.00 75 1014.7
20260502010040 11 0.0 0.0 0.00 0.00 0.00 73 1014.4
20260502004538 11 0.0 0.0 0.00 0.00 0.00 71 1014.4
20260502003036 11 0.0 0.0 0.00 0.00 0.00 71 1014.5
20260502001535 11 0.0 0.0 0.00 0.00 0.00 73 1014.4
20260502000033 11 0.0 0.0 0.00 0.00 0.00 73 1014.0
20260501234536 11 0.0 0.0 0.00 0.00 0.00 72 1013.9
20260501233029 11 0.0 0.0 0.00 0.00 0.00 70 1013.7
20260501231525 11 0.0 14.5 0.00 0.00 0.00 68 1013.5
20260501230028 12 0.0 12.9 0.00 0.00 0.00 65 1013.5
20260501224522 12 0.0 22.5 0.00 0.00 0.00 65 1013.5
20260501223020 13 0.0 24.1 0.00 0.00 0.00 63 1013.6
20260501221519 13 0.0 16.1 0.00 0.00 0.00 62 1013.8
20260501220015 13 0.0 16.1 0.00 0.00 0.00 61 1013.7
20260501214513 13 0.0 8.0 0.00 0.00 0.00 60 1013.8
20260501213011 13 1.6 20.9 0.00 0.00 0.00 58 1013.6
20260501211508 14 0.0 19.3 0.00 0.00 0.00 56 1013.5
20260501210007 15 0.0 11.3 0.00 0.00 0.00 53 1013.4
20260501204504 16 0.0 16.1 0.00 0.00 0.00 49 1013.3
20260501203002 16 0.0 17.7 0.00 0.00 0.00 47 1013.4
20260501201607 16 1.6 20.9 0.00 0.00 0.00 46 1013.2
20260501200057 17 0.0 20.9 0.00 0.00 0.00 46 1013.0
20260501194601 17 0.0 0.0 0.00 0.00 0.00 42 1012.8
20260501193052 17 0.0 0.0 0.00 0.00 0.00 41 1013.1
20260501191549 17 0.0 1.6 0.00 0.00 0.00 42 1013.3
20260501190046 17 3.2 17.7 0.00 0.00 0.00 42 1013.5
20260501184545 17 0.0 0.0 0.00 0.00 0.00 41 1013.6
20260501183046 17 0.0 1.6 0.00 0.00 0.00 36 1013.6
20260501181540 17 0.0 1.6 0.00 0.00 0.00 36 1013.7
20260501180039 17 0.0 0.0 0.00 0.00 0.00 39 1013.9
20260501174538 17 0.0 0.0 0.00 0.00 0.00 40 1014.0
20260501173031 16 0.0 0.0 0.00 0.00 0.00 37 1014.2
20260501171528 16 0.0 1.6 0.00 0.00 0.00 39 1014.3
20260501170025 16 0.0 0.0 0.00 0.00 0.00 38 1014.4
20260501164521 16 0.0 0.0 0.00 0.00 0.00 43 1014.5
20260501163018 16 0.0 1.6 0.00 0.00 0.00 39 1014.6
20260501161516 15 0.0 0.0 0.00 0.00 0.00 39 1014.8
20260501160017 15 0.0 0.0 0.00 0.00 0.00 43 1014.9
20260501154510 15 0.0 3.2 0.00 0.00 0.00 43 1015.2
20260501153005 15 0.0 0.0 0.00 0.00 0.00 47 1015.3
20260501151605 14 0.0 0.0 0.00 0.00 0.00 45 1015.3
20260501150058 13 0.0 0.0 0.00 0.00 0.00 46 1015.2
20260501144556 13 0.0 3.2 0.00 0.00 0.00 47 1015.0
20260501143104 13 0.0 1.6 0.00 0.00 0.00 49 1015.1
20260501141552 13 0.0 0.0 0.00 0.00 0.00 50 1015.2